Theta_e
319 322 325 325 325 321 322 323 325 325 325 325 324 339 349 348 350 348 348 351 348 349 347 347 347 347 348 349 349 353 351 346
317 319 323 323 323 322 322 326 328 327 327 328 327 325 347 349 348 353 352 352 350 349 349 347 347 347 348 350 350 352 353 350
314 317 319 321 320 321 321 325 328 326 326 326 331 332 347 348 347 352 349 351 350 348 349 346 348 347 349 352 351 351 351 353
313 314 315 315 318 317 318 322 326 330 331 327 329 333 339 347 346 350 350 350 349 346 346 346 347 348 349 351 353 353 353 352
313 313 315 316 315 313 312 311 314 318 326 327 327 328 332 334 337 347 347 349 340 344 348 347 345 348 350 351 354 355 355 353
314 315 314 315 315 315 313 310 312 315 318 319 326 326 327 331 329 335 349 346 342 342 343 343 345 345 350 351 353 355 356 356
312 313 313 314 314 315 314 313 314 314 316 324 322 322 325 324 324 325 329 343 342 341 339 348 344 348 351 352 351 355 357 357
313 313 313 314 315 316 316 315 314 314 314 314 314 315 316 315 316 318 319 326 327 331 334 348 344 343 340 349 353 352 357 358
316 314 315 316 314 315 315 316 313 313 313 314 315 316 315 315 317 318 317 319 327 330 344 345 341 340 339 342 353 353 353 358
316 316 318 316 314 315 316 316 315 315 314 315 315 315 314 315 316 319 322 325 341 337 348 345 347 346 348 349 351 354 354 355
314 316 315 314 313 313 314 315 315 315 315 316 317 316 314 318 319 320 321 323 336 329 339 350 346 345 346 342 339 347 354 354
318 316 316 312 312 312 312 313 313 316 317 316 315 317 316 316 315 318 320 321 333 330 339 342 350 338 337 339 342 343 345 356
319 322 319 314 313 315 317 316 315 315 314 314 314 313 313 314 315 317 318 320 333 340 342 345 349 352 348 340 341 348 354 357
317 320 317 311 312 316 313 310 310 311 312 312 311 311 311 314 316 318 319 323 336 337 338 342 350 349 354 353 353 353 360 359
311 313 310 310 309 308 308 308 308 308 309 310 310 311 311 313 316 318 328 330 332 331 333 340 343 342 349 353 358 356 356 361
308 310 309 308 307 307 306 307 306 306 308 309 309 310 311 313 316 325 327 326 327 329 334 335 333 335 342 347 352 356 361 361
309 309 308 308 306 305 305 304 306 308 307 308 309 311 314 316 321 324 325 325 325 326 327 327 327 331 335 337 343 350 357 363
309 308 308 307 306 305 304 305 306 307 311 311 314 315 314 317 322 324 324 323 323 323 324 324 323 325 328 333 335 342 352 361
309 307 308 307 306 305 305 304 304 306 308 312 311 311 310 321 323 323 322 323 321 320 319 320 319 320 322 325 330 337 348 360
Wind_Speed
12 14 8 6 5 9 5 12 4 6 8 10 12 11 26 21 17 10 9 7 8 12 34 34 33 39 42 40 40 41 43 45
13 5 7 8 4 5 4 6 6 6 9 5 6 18 24 22 22 17 18 11 4 6 14 31 34 36 36 38 39 39 39 42
9 4 3 1 2 1 0 1 4 6 8 8 3 18 23 29 26 22 18 20 16 13 18 20 34 33 38 37 39 38 40 37
10 18 15 11 3 0 3 7 3 3 8 11 12 18 5 11 22 25 24 17 17 18 21 28 25 38 38 38 42 42 40 38
10 6 5 6 6 6 4 4 10 5 8 4 16 17 14 13 16 15 18 22 22 24 24 31 31 28 38 39 40 41 39 39
6 7 9 12 19 17 5 2 5 6 8 9 11 12 15 14 19 16 10 9 12 16 17 31 28 15 36 39 39 41 40 39
12 13 14 16 18 19 13 9 4 11 14 4 10 11 14 13 14 13 12 6 5 9 15 15 21 22 16 38 43 40 42 41
13 12 17 17 17 20 19 16 15 13 16 6 11 12 14 15 15 12 10 5 5 15 24 17 29 29 22 19 41 43 41 42
7 8 13 12 12 16 18 18 11 12 10 10 9 12 10 11 14 17 15 11 10 13 13 22 9 15 27 37 38 41 41 40
4 5 3 9 8 14 18 17 18 19 13 9 6 10 12 7 9 17 22 22 10 9 5 16 13 2 8 11 16 39 42 40
3 4 10 14 12 10 7 10 10 8 12 19 15 11 8 13 19 18 19 20 17 13 19 8 13 9 12 21 34 14 29 40
2 4 6 6 6 13 4 9 9 12 12 16 16 7 5 20 20 20 25 28 23 23 23 21 7 16 28 33 33 29 33 34
7 6 6 12 19 10 3 5 19 17 9 14 9 4 12 15 21 27 28 30 27 22 18 21 16 12 17 14 32 39 40 36
5 3 5 20 13 6 11 19 14 19 17 17 17 20 16 12 18 21 24 30 15 14 18 23 25 21 5 34 45 25 20 30
3 5 13 8 9 13 11 16 18 17 18 18 18 23 21 17 15 21 31 9 12 14 17 19 19 25 26 30 16 17 17 36
5 3 10 14 12 10 14 16 20 21 19 16 17 18 19 16 15 14 10 9 10 10 10 11 17 20 22 24 20 15 19 22
5 10 13 8 13 13 15 15 18 22 22 20 16 19 16 15 18 5 4 6 6 6 7 9 12 16 20 22 19 17 17 24
3 8 9 11 13 17 15 17 19 22 10 13 10 11 14 14 14 7 2 3 4 8 11 13 14 15 18 18 19 18 18 18
4 5 8 11 11 13 14 14 13 16 18 11 12 17 25 9 15 10 6 7 9 10 13 15 17 16 19 20 18 17 15 16
Wind_Direction
304 234 183 274 254 217 256 280 311 266 275 280 251 174 187 183 174 167 150 93 42 201 190 192 184 188 189 190 191 190 195 200
333 335 204 191 264 16 251 246 258 276 292 255 257 233 179 178 184 164 143 142 77 32 285 202 195 192 192 192 194 194 196 201
341 322 241 346 332 68 171 243 242 249 272 255 152 31 193 185 184 168 161 153 151 231 273 293 207 195 195 190 192 197 198 200
286 306 317 299 267 97 155 280 240 213 276 343 23 29 333 194 191 175 167 156 160 188 227 249 235 202 195 195 191 195 199 200
326 327 355 347 307 263 251 257 265 231 274 93 35 33 45 34 16 178 167 156 163 184 198 222 218 215 203 196 195 195 196 200
269 329 325 321 322 325 331 236 282 262 281 293 22 17 20 50 58 54 133 209 223 202 202 229 198 206 211 202 195 195 196 198
293 303 305 300 302 304 308 296 294 288 286 60 39 17 9 24 42 68 80 145 254 280 271 255 210 200 224 206 200 195 196 200
284 295 291 288 292 294 296 290 290 297 282 24 5 359 8 352 2 27 25 100 234 265 263 203 204 216 240 252 206 198 197 202
283 325 319 296 259 270 276 285 290 289 296 330 355 348 351 354 5 354 345 328 339 341 220 197 205 289 226 223 217 199 202 201
279 352 257 258 300 291 289 293 297 316 304 337 11 331 330 354 357 358 354 334 33 14 103 219 220 162 283 249 237 204 199 200
192 209 284 298 280 292 346 305 319 314 354 328 17 345 338 17 1 345 338 329 318 359 352 21 155 166 260 303 308 275 230 198
241 223 228 283 265 287 13 273 338 26 7 331 352 334 320 344 340 330 324 315 309 341 334 331 2 130 142 192 246 263 256 212
234 244 272 11 341 327 219 314 333 344 350 321 318 288 320 329 320 318 310 315 310 340 328 318 332 289 176 203 244 257 240 225
338 256 248 8 354 3 332 316 325 317 317 310 307 308 315 322 313 306 302 303 310 335 323 317 326 331 266 203 219 247 230 215
272 283 319 354 321 319 321 311 313 306 297 296 304 303 308 315 309 302 288 258 320 326 310 311 327 329 321 325 333 272 243 218
311 259 310 321 313 333 316 311 308 298 295 291 286 284 291 301 297 283 318 344 325 292 313 337 330 319 317 320 322 316 259 232
255 286 310 280 319 314 313 309 298 306 270 279 277 279 274 281 283 228 292 318 328 337 340 346 334 325 316 319 324 309 291 245
265 305 305 299 312 321 319 317 317 325 287 274 289 297 295 268 238 190 161 91 13 360 4 349 346 336 328 320 329 318 306 258
250 270 285 277 299 311 315 325 319 331 342 318 351 348 329 212 217 135 120 88 50 16 4 352 350 342 338 336 328 315 300 277